| time (UTC) | temp C | wind direction | speed KPH | gust KPH | rain 1hr cm | rain 24hr cm | rain mn cm | humidity % | barometer mb |
| 20260508111532 | 1 | 116 | 0.0 | 0.0 | 0.00 | 0.00 | 0.00 | 97 | 1011.0 |
| 20260508110032 | 1 | 116 | 0.0 | 0.0 | 0.00 | 0.00 | 0.00 | 97 | 1010.9 |
| 20260508104550 | 1 | 116 | 0.0 | 0.0 | 0.00 | 0.00 | 0.00 | 97 | 1010.8 |
| 20260508103036 | 1 | 116 | 0.0 | 0.0 | 0.00 | 0.00 | 0.00 | 97 | 1010.7 |
| 20260508101529 | 1 | 116 | 0.0 | 0.0 | 0.00 | 0.00 | 0.00 | 96 | 1010.6 |
| 20260508100027 | 1 | 116 | 0.0 | 0.0 | 0.00 | 0.00 | 0.00 | 96 | 1010.4 |
| 20260508094526 | 1 | 116 | 0.0 | 0.0 | 0.00 | 0.00 | 0.00 | 96 | 1010.3 |
| 20260508093025 | 1 | 116 | 0.0 | 0.0 | 0.00 | 0.00 | 0.00 | 96 | 1010.3 |
| 20260508091524 | 2 | 116 | 0.0 | 0.0 | 0.00 | 0.00 | 0.00 | 96 | 1010.4 |
| 20260508090023 | 2 | 116 | 0.0 | 0.0 | 0.00 | 0.00 | 0.00 | 96 | 1010.2 |
| 20260508084522 | 2 | 116 | 0.0 | 0.0 | 0.00 | 0.00 | 0.00 | 96 | 1010.2 |
| 20260508083020 | 2 | 116 | 0.0 | 0.0 | 0.00 | 0.00 | 0.00 | 96 | 1010.2 |
| 20260508081520 | 2 | 116 | 0.0 | 0.0 | 0.00 | 0.00 | 0.00 | 96 | 1010.1 |
| 20260508080018 | 2 | 116 | 0.0 | 0.0 | 0.00 | 0.00 | 0.00 | 95 | 1010.1 |
| 20260508074515 | 2 | 116 | 0.0 | 0.0 | 0.00 | 0.00 | 0.00 | 95 | 1010.1 |
| 20260508073013 | 2 | 116 | 0.0 | 0.0 | 0.00 | 0.00 | 0.00 | 95 | 1010.1 |
| 20260508071513 | 3 | 103 | 3.2 | 9.7 | 0.00 | 0.00 | 0.00 | 96 | 1010.0 |
| 20260508070019 | 2 | 119 | 0.0 | 4.8 | 0.00 | 0.00 | 0.00 | 96 | 1010.1 |
| 20260508064508 | 2 | 111 | 0.0 | 0.0 | 0.00 | 0.00 | 0.00 | 95 | 1010.2 |
| 20260508063007 | 2 | 111 | 0.0 | 0.0 | 0.00 | 0.00 | 0.00 | 95 | 1010.3 |
| 20260508061508 | 3 | 111 | 0.0 | 4.8 | 0.00 | 0.00 | 0.00 | 95 | 1010.2 |
| 20260508060005 | 3 | 248 | 0.0 | 0.0 | 0.00 | 0.00 | 0.00 | 95 | 1010.1 |
| 20260508054505 | 3 | 248 | 0.0 | 0.0 | 0.00 | 0.00 | 0.00 | 94 | 1010.1 |
| 20260508053002 | 3 | 248 | 0.0 | 0.0 | 0.00 | 0.00 | 0.00 | 94 | 1010.4 |
| 20260508051600 | 3 | 248 | 0.0 | 0.0 | 0.00 | 0.00 | 0.00 | 94 | 1010.5 |
| 20260508050103 | 3 | 248 | 0.0 | 0.0 | 0.00 | 0.00 | 0.00 | 94 | 1010.5 |
| 20260508044557 | 3 | 248 | 0.0 | 0.0 | 0.00 | 0.00 | 0.00 | 93 | 1010.4 |
| 20260508043103 | 4 | 248 | 0.0 | 0.0 | 0.00 | 0.00 | 0.00 | 92 | 1010.4 |
| 20260508041553 | 4 | 248 | 0.0 | 0.0 | 0.00 | 0.00 | 0.00 | 91 | 1010.3 |
| 20260508040050 | 5 | 248 | 0.0 | 0.0 | 0.00 | 0.00 | 0.00 | 90 | 1010.2 |
| 20260508034549 | 5 | 248 | 0.0 | 0.0 | 0.00 | 0.00 | 0.00 | 89 | 1010.3 |
| 20260508033049 | 5 | 248 | 0.0 | 0.0 | 0.00 | 0.00 | 0.00 | 88 | 1010.1 |
| 20260508031551 | 6 | 248 | 0.0 | 0.0 | 0.00 | 0.00 | 0.00 | 86 | 1010.2 |
| 20260508030051 | 6 | 248 | 0.0 | 0.0 | 0.00 | 0.00 | 0.00 | 85 | 1010.1 |
| 20260508024540 | 6 | 248 | 0.0 | 0.0 | 0.00 | 0.00 | 0.00 | 83 | 1010.0 |
| 20260508023044 | 7 | 248 | 0.0 | 0.0 | 0.00 | 0.00 | 0.00 | 79 | 1010.0 |
| 20260508021539 | 7 | 248 | 0.0 | 0.0 | 0.00 | 0.00 | 0.00 | 79 | 1009.6 |
| 20260508020039 | 8 | 248 | 0.0 | 0.0 | 0.00 | 0.00 | 0.00 | 76 | 1009.4 |
| 20260508014538 | 8 | 248 | 0.0 | 0.0 | 0.00 | 0.00 | 0.00 | 72 | 1009.4 |
| 20260508013038 | 9 | 248 | 0.0 | 0.0 | 0.00 | 0.00 | 0.00 | 69 | 1009.1 |
| 20260508011539 | 10 | 248 | 0.0 | 0.0 | 0.00 | 0.00 | 0.00 | 68 | 1008.9 |
| 20260508010036 | 11 | 248 | 0.0 | 0.0 | 0.00 | 0.00 | 0.00 | 64 | 1008.7 |
| 20260508004535 | 11 | 248 | 0.0 | 0.0 | 0.00 | 0.00 | 0.00 | 57 | 1008.5 |
| 20260508003036 | 13 | 248 | 0.0 | 0.0 | 0.00 | 0.00 | 0.00 | 56 | 1008.4 |
| 20260508001535 | 13 | 248 | 1.6 | 8.0 | 0.00 | 0.00 | 0.00 | 46 | 1008.3 |
| 20260508000035 | 14 | 247 | 4.8 | 16.1 | 0.00 | 0.00 | 0.00 | 41 | 1008.1 |
| 20260507234540 | 15 | 199 | 9.7 | 17.7 | 0.00 | 0.00 | 0.00 | 41 | 1007.9 |
| 20260507233034 | 15 | 236 | 4.8 | 14.5 | 0.00 | 0.00 | 0.00 | 40 | 1007.8 |
| 20260507231533 | 16 | 245 | 9.7 | 17.7 | 0.00 | 0.00 | 0.00 | 39 | 1007.7 |
| 20260507230032 | 16 | 178 | 6.4 | 19.3 | 0.00 | 0.00 | 0.00 | 40 | 1007.4 |
| 20260507224532 | 16 | 246 | 8.0 | 19.3 | 0.00 | 0.00 | 0.00 | 39 | 1007.3 |
| 20260507223031 | 16 | 249 | 9.7 | 19.3 | 0.00 | 0.00 | 0.00 | 40 | 1007.3 |
| 20260507221530 | 17 | 142 | 3.2 | 19.3 | 0.00 | 0.00 | 0.00 | 42 | 1007.2 |
| 20260507220030 | 16 | 271 | 8.0 | 14.5 | 0.00 | 0.00 | 0.00 | 44 | 1007.1 |
| 20260507214530 | 16 | 220 | 11.3 | 27.4 | 0.00 | 0.00 | 0.00 | 43 | 1006.9 |
| 20260507213030 | 17 | 232 | 8.0 | 20.9 | 0.00 | 0.00 | 0.00 | 44 | 1006.8 |
| 20260507211528 | 16 | 222 | 6.4 | 14.5 | 0.00 | 0.00 | 0.00 | 44 | 1006.7 |
| 20260507210027 | 16 | 269 | 4.8 | 22.5 | 0.00 | 0.00 | 0.00 | 47 | 1006.6 |
| 20260507204526 | 16 | 246 | 9.7 | 20.9 | 0.00 | 0.00 | 0.00 | 45 | 1006.6 |
| 20260507203026 | 16 | 231 | 8.0 | 30.6 | 0.00 | 0.00 | 0.00 | 43 | 1006.5 |
| 20260507201531 | 16 | 250 | 3.2 | 17.7 | 0.00 | 0.00 | 0.00 | 48 | 1006.6 |
| 20260507200024 | 17 | 244 | 6.4 | 20.9 | 0.00 | 0.00 | 0.00 | 46 | 1006.7 |
| 20260507194523 | 17 | 236 | 12.9 | 25.7 | 0.00 | 0.00 | 0.00 | 45 | 1006.8 |
| 20260507193028 | 17 | 130 | 4.8 | 12.9 | 0.00 | 0.00 | 0.00 | 44 | 1006.8 |
| 20260507191521 | 16 | 147 | 3.2 | 16.1 | 0.00 | 0.00 | 0.00 | 46 | 1007.3 |
| 20260507190019 | 17 | 252 | 4.8 | 14.5 | 0.00 | 0.00 | 0.00 | 46 | 1007.5 |
| 20260507184516 | 16 | 257 | 8.0 | 24.1 | 0.00 | 0.00 | 0.00 | 50 | 1007.5 |
| 20260507183023 | 16 | 260 | 11.3 | 19.3 | 0.00 | 0.00 | 0.00 | 47 | 1007.7 |
| 20260507181512 | 16 | 207 | 4.8 | 22.5 | 0.00 | 0.00 | 0.00 | 55 | 1007.5 |
| 20260507180015 | 15 | 296 | 4.8 | 20.9 | 0.00 | 0.00 | 0.00 | 52 | 1007.8 |
| 20260507174509 | 15 | 242 | 6.4 | 16.1 | 0.00 | 0.00 | 0.00 | 54 | 1007.9 |
| 20260507173007 | 15 | 128 | 1.6 | 17.7 | 0.00 | 0.00 | 0.00 | 54 | 1007.9 |
| 20260507171504 | 14 | 246 | 4.8 | 17.7 | 0.00 | 0.00 | 0.00 | 57 | 1008.0 |
| 20260507170003 | 15 | 267 | 6.4 | 16.1 | 0.00 | 0.00 | 0.00 | 56 | 1008.1 |
| 20260507164636 | 14 | 304 | 4.8 | 14.5 | 0.00 | 0.00 | 0.00 | 56 | 1008.4 |
| 20260507163101 | 14 | 233 | 8.0 | 17.7 | 0.00 | 0.00 | 0.00 | 55 | 1008.5 |
| 20260507161607 | 14 | 273 | 6.4 | 14.5 | 0.00 | 0.00 | 0.00 | 59 | 1008.4 |
| 20260507160058 | 14 | 196 | 4.8 | 14.5 | 0.00 | 0.00 | 0.00 | 58 | 1008.6 |
| 20260507154557 | 14 | 214 | 8.0 | 17.7 | 0.00 | 0.00 | 0.00 | 56 | 1008.6 |
| 20260507153055 | 13 | 265 | 11.3 | 19.3 | 0.00 | 0.00 | 0.00 | 55 | 1008.7 |
| 20260507151553 | 13 | 273 | 8.0 | 16.1 | 0.00 | 0.00 | 0.00 | 61 | 1008.6 |
| 20260507150052 | 13 | 271 | 1.6 | 12.9 | 0.00 | 0.00 | 0.00 | 60 | 1008.9 |
| 20260507144550 | 13 | 292 | 9.7 | 16.1 | 0.00 | 0.05 | 0.00 | 62 | 1008.9 |
| 20260507143105 | 13 | 250 | 6.4 | 14.5 | 0.00 | 0.05 | 0.00 | 64 | 1008.9 |
| 20260507141605 | 12 | 217 | 1.6 | 11.3 | 0.00 | 0.05 | 0.00 | 66 | 1008.9 |
| 20260507140046 | 12 | 177 | 1.6 | 12.9 | 0.00 | 0.05 | 0.00 | 65 | 1009.2 |
| 20260507134543 | 12 | 259 | 6.4 | 16.1 | 0.00 | 0.05 | 0.00 | 65 | 1009.3 |
| 20260507133042 | 11 | 244 | 3.2 | 8.0 | 0.00 | 0.05 | 0.00 | 65 | 1009.5 |
| 20260507131549 | 10 | 279 | 0.0 | 4.8 | 0.00 | 0.05 | 0.00 | 78 | 1009.5 |
| 20260507130043 | 10 | 279 | 0.0 | 3.2 | 0.00 | 0.05 | 0.00 | 91 | 1009.5 |
| 20260507124538 | 8 | 243 | 0.0 | 0.0 | 0.00 | 0.08 | 0.00 | 96 | 1009.5 |
| 20260507123040 | 8 | 243 | 0.0 | 0.0 | 0.00 | 0.08 | 0.00 | 97 | 1009.5 |
| 20260507121542 | 7 | 243 | 0.0 | 0.0 | 0.00 | 0.08 | 0.00 | 97 | 1009.5 |
| 20260507120036 | 7 | 243 | 0.0 | 0.0 | 0.00 | 0.28 | 0.00 | 97 | 1009.6 |
| 20260507114535 | 7 | 243 | 0.0 | 0.0 | 0.00 | 0.28 | 0.00 | 98 | 1009.6 |
| 20260507113035 | 7 | 243 | 0.0 | 0.0 | 0.00 | 0.28 | 0.00 | 97 | 1009.4 |